SCP
1 1 1 0 0 0 0 0 0 1 1 1 1 1 1 0 0 0 0 0 0 1 1 1 1 1 0 0 0 0 0 0 0 0 0 0 0 0 0 0 0 0 0
1 1 1 1 0 0 0 0 0 1 1 1 1 0 0 0 0 0 0 0 0 1 1 1 1 1 0 0 0 0 0 0 0 0 0 0 0 0 0 0 0 0 0
2 1 1 1 0 0 0 0 0 1 1 1 1 0 0 0 0 0 0 0 0 0 1 1 1 1 0 0 0 0 1 0 0 0 0 0 0 0 0 0 0 0 0
2 2 1 1 0 0 0 0 0 0 0 1 0 0 0 0 0 0 0 0 0 0 0 1 1 1 0 0 0 0 1 1 0 0 0 0 0 0 0 0 0 0 0
2 2 1 0 0 0 0 0 0 0 0 0 0 0 0 0 0 0 0 0 0 0 0 0 0 0 1 0 0 0 0 0 0 0 0 0 0 0 0 0 0 0 0
2 2 1 0 0 0 0 0 0 0 0 0 0 0 0 0 0 0 0 0 0 0 0 0 0 0 0 1 0 0 0 0 0 0 0 0 0 0 0 0 0 0 0
2 1 1 0 0 0 0 0 0 0 0 0 0 0 0 0 0 0 0 0 0 0 0 0 0 0 0 0 0 0 0 0 0 0 0 0 0 0 0 0 0 0 0
2 1 1 0 0 0 0 0 0 0 0 0 0 0 0 0 0 0 0 0 0 0 0 0 0 0 0 0 0 0 0 0 0 0 0 0 0 0 0 0 0 0 0
1 1 1 0 0 0 0 0 0 0 0 0 0 0 0 0 0 0 0 0 0 0 0 0 0 0 0 0 0 0 0 0 0 0 0 0 0 0 0 0 0 0 0
1 1 1 0 0 0 0 0 0 0 0 0 0 0 0 0 0 0 0 0 0 0 0 0 0 0 0 0 0 0 0 0 0 0 0 0 0 0 0 0 0 0 0
1 1 1 0 0 0 0 0 0 0 0 0 0 0 0 0 0 0 0 0 0 0 0 0 0 0 0 0 0 0 0 0 0 0 0 0 0 0 0 0 0 0 0
0 0 0 0 0 0 0 0 0 0 0 0 0 0 0 0 0 0 0 0 0 0 0 0 0 0 0 0 0 0 0 0 0 0 0 0 0 0 0 0 0 0 0
1 1 0 1 0 0 0 0 0 1 1 1 1 1 1 1 1 0 0 0 0 0 0 0 0 0 0 0 0 0 0 0 0 0 0 0 0 0 0 0 0 0 0
1 1 1 1 1 1 1 1 1 1 1 1 1 1 1 1 1 1 0 0 0 0 0 0 0 0 0 0 0 0 0 0 0 0 0 0 0 0 0 0 0 0 0
1 1 1 1 1 1 1 1 1 1 1 1 1 1 1 1 1 1 0 0 0 0 0 0 0 0 0 0 0 0 0 0 0 0 0 0 0 0 0 0 0 0 0
1 1 1 1 1 1 1 1 1 1 1 1 1 1 1 1 1 0 0 0 0 0 0 0 0 0 0 0 0 0 0 0 0 0 0 0 0 0 0 0 0 0 0
2 2 1 1 1 1 1 1 1 1 1 1 1 1 1 0 0 0 0 0 0 0 0 0 0 0 0 0 0 0 0 0 0 0 0 0 0 0 0 0 0 0 0
2 2 1 1 1 1 1 1 1 0 0 0 0 0 0 0 0 0 0 0 0 0 0 0 0 0 0 0 0 0 0 0 0 0 0 0 0 0 0 0 0 0 0
2 2 1 1 1 1 1 1 0 0 0 0 0 0 0 0 0 0 0 0 0 0 0 0 0 0 0 0 0 0 0 0 0 0 0 0 0 0 0 0 0 0 0
1 1 1 1 1 1 1 1 0 0 0 0 0 0 0 0 0 0 0 0 0 0 0 0 0 0 0 0 0 0 0 0 0 0 0 0 0 0 0 0 0 0 0
1 0 0 0 0 0 0 0 0 0 1 0 0 0 0 0 0 0 0 0 0 0 0 0 0 0 0 0 0 0 0 0 0 0 0 0 0 0 0 0 0 0 0
0 0 0 0 0 0 0 0 0 0 0 0 0 0 0 0 0 0 0 0 0 0 0 0 0 0 0 0 0 0 0 0 0 0 0 0 0 0 0 0 0 0 0
0 0 0 0 0 0 0 0 0 0 0 0 0 0 0 0 0 0 0 0 0 0 0 0 0 0 0 0 0 0 0 0 0 0 0 0 0 0 0 0 0 0 0
0 0 0 0 0 0 0 0 0 0 0 0 0 0 0 0 0 0 0 0 0 0 0 0 0 0 0 0 0 0 0 0 0 0 0 0 0 0 0 0 0 0 0
0 0 0 0 0 0 0 0 0 0 0 0 0 0 0 0 0 0 0 0 0 0 0 0 0 0 0 0 0 0 0 0 0 0 0 0 0 0 0 0 0 0 0
0 0 0 0 0 0 0 0 0 0 0 0 0 0 0 0 0 0 0 0 0 0 0 0 0 0 0 0 0 0 0 0 0 0 0 0 0 0 0 0 0 0 0
Wind_Speed
3 3 2 2 2 2 1 1 2 2 2 2 2 3 2 3 3 3 2 5 6 6 7 8 8 9 10 10 10 11 11 11 12 12 12 13 13 13 14 14 15 15 15
3 3 3 2 2 2 1 1 2 2 2 2 2 2 2 2 3 3 2 3 5 6 6 7 8 9 10 10 10 11 11 12 12 13 13 13 14 14 14 15 15 15 15
4 4 3 2 2 2 2 2 2 2 2 2 2 2 2 2 2 2 2 1 1 4 6 6 7 8 9 10 11 11 11 12 12 13 13 14 14 14 15 15 15 15 16
4 4 3 3 2 2 2 2 2 1 1 1 1 1 1 1 1 1 1 1 1 1 3 5 7 8 9 10 11 11 12 12 13 13 14 14 14 15 15 16 16 16 16
4 4 3 3 3 2 2 2 2 1 1 1 1 0 0 0 0 1 1 1 1 1 0 3 5 7 9 10 11 11 12 13 13 14 14 15 15 16 16 16 16 16 16
4 4 3 3 3 2 2 2 2 2 1 1 1 1 1 1 1 1 0 0 0 1 1 1 1 4 7 9 10 12 12 13 14 14 15 15 16 16 16 16 17 17 17
4 3 3 3 3 2 2 2 2 2 1 1 1 1 1 1 1 1 0 0 1 1 1 1 1 1 2 7 9 11 13 14 14 15 15 16 16 17 17 17 17 17 17
3 3 3 3 2 2 2 2 2 1 1 1 1 0 2 2 2 1 1 1 1 1 1 2 2 2 2 1 5 11 12 14 15 15 16 17 17 17 18 18 18 18 18
3 3 3 3 3 3 2 2 2 2 1 0 1 1 1 1 2 2 2 1 1 1 2 2 2 2 2 1 2 7 12 14 15 16 16 17 18 18 18 18 18 19 19
3 3 3 3 3 2 2 2 1 1 2 1 0 0 1 1 0 3 3 2 2 2 2 3 2 2 2 2 4 8 12 14 15 16 17 17 18 18 19 19 19 19 19
3 3 3 3 3 2 2 2 2 1 1 1 1 0 1 1 0 1 3 3 3 3 2 3 2 2 2 2 3 6 12 13 15 16 17 17 18 19 19 19 19 19 19
3 4 4 3 3 2 2 2 2 2 1 1 0 0 0 0 1 1 2 4 4 4 3 2 1 2 2 2 4 11 13 13 15 16 16 17 18 18 19 19 19 19 19
3 4 4 3 3 3 2 2 2 2 2 1 1 0 0 0 0 1 1 3 4 4 2 2 2 2 3 2 4 11 11 14 15 15 16 16 17 18 18 19 19 19 19
3 4 4 4 4 3 3 2 2 2 2 1 1 0 0 1 1 1 1 2 4 3 3 4 2 2 2 3 6 10 7 14 15 15 15 16 16 17 17 18 18 18 18
3 4 4 4 3 3 3 3 2 2 2 1 1 1 0 1 1 1 1 1 1 4 5 4 2 3 3 3 7 5 5 12 15 15 15 16 16 16 17 17 18 18 18
3 4 4 4 4 3 3 3 2 2 2 1 1 1 1 1 1 1 1 1 1 3 5 4 4 5 5 5 9 6 6 13 14 15 15 16 16 16 16 16 17 18 18
4 4 4 4 4 3 3 3 2 2 2 1 1 1 1 1 1 1 1 1 2 2 5 6 5 5 6 6 6 6 6 5 7 14 15 16 16 16 15 16 16 17 18
3 3 3 4 4 3 3 3 3 2 2 2 1 1 1 1 1 1 1 2 2 3 4 7 6 5 6 6 6 7 6 6 6 12 14 15 16 15 15 15 16 17 17
3 3 3 3 3 3 3 3 3 2 2 2 1 1 1 1 2 2 2 2 3 3 3 5 6 5 5 5 6 7 7 5 7 9 12 14 14 15 15 16 16 17 16
3 2 2 3 2 3 3 2 2 2 2 1 1 1 1 2 2 2 2 3 3 3 4 4 5 5 5 5 5 6 7 6 7 7 9 10 12 14 15 16 16 16 16
2 2 3 3 2 2 2 2 2 2 2 1 1 1 2 2 3 3 3 3 3 3 3 4 5 5 5 5 6 5 7 7 7 4 6 6 6 6 7 11 14 15 16
2 2 2 3 2 2 2 2 2 2 2 2 2 2 2 2 3 4 6 6 5 4 4 4 4 5 6 6 5 6 6 7 7 4 6 8 5 6 6 5 12 16 16
2 2 2 3 3 2 2 2 1 0 1 2 2 1 1 2 2 2 4 6 6 7 6 4 5 6 6 6 6 6 6 7 7 6 6 7 6 6 6 8 15 16 15
2 2 2 2 2 2 2 1 1 0 1 1 1 1 1 1 2 3 3 3 4 4 5 4 4 5 5 5 5 5 6 7 7 4 4 6 6 6 7 6 12 14 14
2 2 2 2 2 2 2 2 2 0 0 0 1 1 1 1 4 6 3 3 4 4 5 7 8 8 10 10 8 5 5 6 7 5 3 4 5 7 6 6 7 12 14
2 2 1 2 2 2 2 2 3 1 0 1 1 1 2 3 5 5 2 2 4 5 5 6 6 7 5 6 8 4 4 5 6 5 3 4 5 6 6 4 4 6 8
Wind_Direction
119 121 116 114 102 99 101 87 72 61 56 46 57 63 57 75 90 92 77 58 45 33 27 21 16 15 12 9 6 1 359 357 354 351 349 345 343 341 338 335 333 332 330
115 109 100 98 94 95 81 78 78 77 59 40 49 55 54 65 88 99 102 68 48 32 22 16 8 6 3 1 0 359 356 354 351 349 344 342 339 337 335 333 331 330 328
115 113 109 96 93 87 78 66 51 59 63 45 48 50 44 37 58 89 94 99 64 33 19 8 2 358 356 355 355 354 352 349 347 345 341 339 336 334 333 331 330 328 327
112 112 113 107 96 85 80 80 74 60 55 47 39 28 38 33 40 69 69 73 70 51 7 357 355 351 349 349 349 349 348 346 343 342 340 337 334 333 331 329 328 326 324
113 111 114 116 108 95 86 83 69 76 59 29 6 350 6 161 201 77 73 63 57 64 31 345 347 343 343 342 343 343 344 342 340 339 337 335 333 330 329 327 326 324 322
115 113 115 113 108 102 90 87 80 65 70 353 322 305 252 224 192 128 160 23 352 13 357 330 325 327 336 336 337 337 338 337 337 335 334 332 330 329 328 326 324 323 321
117 119 120 117 113 116 118 107 97 88 50 25 29 329 297 257 187 159 218 273 330 340 336 330 320 313 317 328 329 331 332 332 332 332 332 331 330 329 327 325 324 323 320
125 127 124 130 124 119 113 102 99 99 68 63 82 25 334 322 307 251 230 239 271 306 310 324 316 313 312 304 320 327 327 328 328 329 330 330 329 327 327 326 325 323 322
130 129 134 134 133 131 136 132 119 110 147 296 77 107 114 278 304 293 267 261 318 320 310 304 305 317 318 313 305 317 323 325 325 327 328 328 327 326 326 325 325 324 323
133 135 137 136 134 135 138 148 136 119 132 168 325 36 164 159 338 305 303 303 313 304 298 306 306 300 305 304 314 322 323 324 324 326 326 327 326 326 325 325 324 323 323
142 144 151 146 148 149 150 153 140 121 138 148 158 278 299 319 243 246 293 307 309 286 285 286 284 293 299 300 299 313 323 321 321 324 325 325 326 325 324 324 324 322 322
155 155 156 155 156 160 160 157 154 150 153 144 127 112 135 183 280 267 282 301 300 289 285 278 279 297 304 302 319 325 320 320 321 323 324 325 324 323 323 323 323 322 322
166 169 160 166 166 168 163 158 158 170 166 156 158 179 238 239 269 293 292 297 301 297 286 278 274 290 307 314 316 319 317 319 319 321 322 323 324 324 324 323 322 323 323
169 166 165 167 169 165 162 165 162 174 152 155 159 150 288 304 313 290 270 302 312 305 294 285 296 282 312 311 308 319 315 317 318 318 320 322 322 323 324 324 324 324 325
157 154 157 164 164 161 168 170 170 173 153 153 170 187 228 294 317 306 294 269 276 300 301 292 309 306 311 308 312 313 307 314 318 317 318 320 321 323 323 324 325 325 324
144 150 158 162 162 165 168 160 161 159 149 174 178 176 235 265 303 311 312 304 273 267 284 297 303 309 315 317 318 317 307 319 318 317 317 319 321 321 323 325 326 325 325
148 153 161 163 164 169 163 158 165 156 163 178 178 183 265 311 306 292 289 290 289 281 283 296 303 312 315 314 316 311 308 304 310 316 319 321 321 321 322 325 326 325 326
150 155 159 158 161 167 168 163 167 167 175 189 206 210 262 295 285 283 280 280 284 285 287 300 308 314 312 312 314 314 316 317 310 313 320 322 323 324 324 326 326 326 325
141 142 148 153 159 165 162 159 167 174 181 193 203 216 242 250 270 289 292 287 289 298 292 295 302 308 310 320 321 317 315 311 313 315 319 321 323 326 326 327 328 328 327
134 138 143 139 143 148 148 148 158 169 184 197 216 229 244 248 256 275 282 282 291 295 294 295 301 309 312 320 324 321 320 320 316 318 320 320 320 323 324 324 326 327 327
123 136 131 123 121 135 141 141 153 170 183 194 232 243 253 281 305 302 304 299 299 295 302 304 302 310 317 328 324 321 317 318 312 311 318 315 313 310 314 318 322 327 328
107 114 122 123 125 119 123 126 139 180 186 201 225 244 257 260 292 310 318 319 317 308 306 300 301 309 310 313 315 319 321 326 319 323 322 310 312 308 308 306 322 328 331
120 125 134 129 134 132 132 133 93 134 201 213 223 241 281 302 311 288 309 317 316 315 311 299 297 302 307 312 313 315 318 318 305 310 316 302 308 305 308 316 326 330 333
128 130 135 134 133 128 109 102 89 80 205 225 238 234 264 302 313 325 314 314 311 310 309 307 290 296 305 307 307 308 306 308 301 299 311 298 307 306 308 306 321 331 334
113 108 113 124 125 123 106 75 62 169 153 353 342 344 329 306 324 339 335 317 318 319 323 323 320 317 320 326 331 327 324 323 316 308 314 303 306 309 301 296 315 331 334
121 114 104 110 116 122 104 72 43 104 69 13 357 353 344 339 333 341 335 320 319 322 330 331 330 330 327 327 335 329 319 317 314 306 316 322 312 324 315 299 309 323 327